Wind_Speed
34 35 34 33 33 34 34 34 34 33 33 34 33 32 30 30 30 29 28 29 29 29 29 29 29 29 29 29 29 29 30 31 31 32 33 35 36 36 36 37 36 35 36 36
35 35 33 34 34 34 35 35 34 34 34 35 34 33 31 31 31 30 29 29 30 30 30 30 30 30 29 29 30 30 30 31 32 33 33 34 36 37 37 38 38 37 36 37
35 34 34 35 35 35 35 35 35 35 34 35 36 35 32 31 30 30 30 30 30 30 31 31 31 31 31 30 31 30 30 31 32 34 35 35 36 38 38 38 39 38 38 39
36 35 35 35 35 36 37 35 36 36 36 36 37 37 33 31 30 30 30 31 30 31 32 32 31 31 31 31 31 32 32 31 32 34 36 36 37 38 38 38 39 39 39 40
38 37 37 36 35 36 36 36 36 37 37 38 37 39 36 32 31 30 31 31 31 32 32 32 32 32 31 31 32 33 34 33 33 33 35 37 38 38 39 39 39 40 41 41
39 39 38 38 37 36 36 37 37 38 39 40 37 38 38 34 31 31 32 32 32 32 32 32 33 33 32 32 32 33 34 33 33 34 35 37 38 38 39 40 40 40 41 41
40 40 40 39 38 38 38 38 38 39 41 41 39 39 39 35 33 32 32 32 32 33 33 33 34 34 33 33 33 33 33 34 34 34 35 36 38 39 40 40 40 41 42 41
40 40 39 40 39 39 39 40 40 40 41 41 40 40 38 36 34 33 32 31 32 33 33 34 34 35 34 34 34 35 35 34 34 35 35 36 37 38 39 41 41 41 42 42
40 41 40 40 39 39 39 40 39 40 41 42 42 40 38 36 35 34 33 32 32 32 33 34 35 35 35 35 35 35 35 35 35 35 36 37 37 39 39 40 41 41 41 42
40 41 41 40 40 40 40 39 39 40 41 42 42 40 38 35 35 35 34 34 33 33 33 33 34 34 35 35 35 35 35 35 37 37 37 37 38 39 40 41 41 41 42 42
39 41 41 40 40 39 39 39 39 40 41 42 43 41 37 35 35 35 35 34 34 33 32 33 33 34 34 35 35 35 35 36 38 38 38 38 38 40 40 40 41 41 41 42
38 41 41 41 40 39 40 39 40 40 41 42 43 41 37 36 35 35 35 35 34 34 33 33 33 34 35 35 35 36 36 37 38 39 38 38 38 39 39 40 41 42 42 42
38 39 41 40 40 39 40 40 40 41 42 42 42 40 36 36 36 36 35 35 35 35 35 34 34 35 35 35 35 36 36 37 37 38 38 38 37 38 40 41 42 42 43 42
39 39 39 39 39 39 40 40 40 42 43 43 41 38 36 36 36 37 37 36 35 35 36 36 36 37 36 36 36 36 36 36 36 37 38 38 37 37 38 39 40 41 41 41
38 39 38 38 39 40 41 40 41 43 43 43 40 39 37 37 37 38 38 38 37 37 37 37 37 37 37 36 36 36 36 36 37 38 38 38 37 37 37 38 40 40 40 39
38 38 38 38 38 39 41 41 41 42 42 42 41 39 36 36 37 37 37 38 38 38 38 38 38 38 38 38 37 37 37 37 37 38 38 39 39 39 38 38 38 38 38 38
37 37 38 38 38 39 39 37 39 40 40 40 40 38 38 38 39 38 38 38 38 38 39 39 39 39 39 39 38 37 38 38 38 38 38 38 38 38 38 37 37 37 37 38
37 37 37 37 38 40 37 35 36 37 38 39 40 39 39 40 40 40 39 38 38 38 39 39 39 39 39 39 39 39 38 38 38 39 39 39 39 38 37 38 37 37 37 38
35 36 36 37 39 39 36 35 34 35 36 36 37 39 39 40 40 39 39 39 39 39 39 38 38 39 39 39 40 40 40 40 40 39 40 39 39 39 38 38 37 37 37 37
33 32 33 36 37 38 35 33 34 34 34 33 34 36 38 39 39 39 39 39 39 39 38 37 37 38 38 38 39 40 40 40 41 41 41 40 40 39 39 39 38 38 38 38
30 31 31 32 35 37 35 33 33 34 33 32 33 34 35 36 36 37 39 39 39 38 37 37 37 37 38 38 38 39 39 39 40 40 41 41 41 40 40 40 39 39 40 40
28 30 31 30 32 32 31 31 32 32 32 33 33 32 32 33 33 34 36 37 37 37 37 38 38 38 38 38 38 38 38 39 39 39 40 40 40 40 40 41 40 40 41 41
26 28 28 29 29 28 28 29 29 29 30 30 31 31 31 31 32 32 33 34 35 35 36 37 38 39 39 38 38 38 38 38 39 40 40 40 40 41 41 41 41 41 41 42
24 24 26 27 28 28 28 28 27 26 27 29 29 30 30 31 31 31 31 32 33 33 34 34 36 37 37 37 37 37 38 38 39 39 40 40 40 40 40 41 41 42 42 43
22 23 24 25 25 26 27 28 28 28 27 28 29 29 29 29 30 30 31 32 32 33 33 34 34 35 36 37 37 38 38 38 39 39 39 39 40 40 40 41 42 43 43 44
20 21 23 23 24 25 25 26 28 28 28 28 29 30 31 30 30 31 31 31 31 32 33 33 34 34 35 35 35 36 36 37 37 38 38 38 38 39 41 41 42 42 42 42
Wind_Direction
260 260 261 262 261 261 261 260 260 261 261 260 261 261 261 260 260 261 261 260 260 259 258 258 259 260 259 257 255 254 250 246 244 243 243 243 242 242 242 242 242 244 244 244
260 260 261 260 259 260 260 260 261 262 262 261 260 259 259 259 260 260 261 260 259 259 258 258 260 261 260 258 255 253 251 247 245 244 244 243 243 243 244 244 244 245 248 248
260 261 260 259 259 259 260 262 263 263 262 261 260 259 259 260 260 259 259 258 258 258 257 258 260 261 260 259 256 255 253 248 246 244 244 244 244 245 246 247 247 248 250 251
259 258 258 258 259 259 260 261 262 262 261 260 260 261 257 259 260 260 259 258 257 258 257 259 260 260 260 259 257 255 254 250 247 246 245 246 248 248 249 249 248 249 250 251
259 259 258 258 258 259 260 260 260 260 260 260 258 261 258 258 259 260 260 258 256 257 257 258 259 259 259 258 258 256 254 252 249 248 248 248 249 249 249 249 249 248 249 251
258 258 258 257 257 257 258 258 259 258 258 258 258 260 260 260 261 260 260 259 257 257 256 257 258 259 260 259 258 257 255 254 252 252 250 250 251 251 251 250 251 251 250 252
257 256 257 256 256 255 255 256 258 258 257 258 259 259 259 261 262 261 260 260 259 258 258 258 258 258 259 259 258 257 255 255 254 254 253 251 251 252 252 251 251 253 254 253
257 256 255 255 255 256 255 255 257 259 260 260 259 260 260 261 262 262 261 260 259 258 258 259 258 258 259 259 258 257 256 256 255 254 255 254 253 253 252 253 253 254 255 256
256 256 254 255 255 255 255 255 256 258 260 260 260 260 259 260 261 262 261 260 259 258 258 259 258 258 258 258 258 257 256 255 255 256 256 256 255 256 254 254 253 253 254 256
254 255 253 253 253 253 254 255 255 255 257 259 260 260 261 260 261 262 262 260 259 259 258 258 258 258 258 257 256 255 255 256 257 257 257 257 257 257 256 255 256 256 256 257
251 252 252 251 251 251 251 251 252 254 255 257 260 260 262 263 262 263 263 262 261 261 259 259 258 258 256 256 255 254 254 255 257 258 259 259 259 258 257 257 258 258 257 258
251 250 251 250 250 250 251 252 250 250 253 254 257 259 260 262 263 262 262 261 261 260 259 258 257 255 256 256 255 255 256 256 258 259 259 260 260 259 258 260 261 260 257 259
252 251 250 250 249 248 249 248 248 249 251 253 255 257 259 260 261 261 261 260 259 260 258 257 256 254 255 256 256 256 256 257 257 258 258 259 260 261 262 262 263 262 260 261
253 253 253 251 250 249 248 247 248 248 250 252 254 257 257 259 260 259 259 259 258 258 258 257 256 256 256 256 256 256 256 257 257 258 258 260 261 263 263 262 261 262 263 264
254 254 254 252 250 249 250 249 249 250 251 253 255 256 258 258 258 257 258 258 257 256 257 256 255 257 256 255 255 256 257 258 257 258 258 259 260 261 262 262 263 263 265 266
253 254 254 254 252 252 251 250 250 252 253 254 255 255 256 257 256 256 256 257 257 255 255 256 255 256 256 256 256 257 257 258 259 259 260 260 260 262 263 263 264 265 266 266
254 256 256 255 253 253 252 252 253 254 254 255 255 256 256 256 257 256 255 256 257 255 255 256 256 255 256 256 256 257 257 257 258 259 260 261 261 262 263 265 265 265 266 266
255 256 257 256 253 254 255 255 254 256 256 256 256 256 256 257 258 258 257 257 257 257 255 254 255 255 256 256 257 258 258 258 258 259 260 260 261 262 264 266 266 265 265 265
256 257 257 257 256 256 257 257 256 256 255 256 257 257 257 256 257 257 258 257 258 259 256 254 255 255 256 256 257 258 258 258 258 258 259 260 261 262 264 265 265 265 265 264
256 257 257 257 257 258 258 260 259 257 256 256 258 259 258 258 259 258 257 257 258 260 257 256 255 255 256 256 257 257 258 259 259 259 259 259 260 262 263 264 264 265 265 266
255 254 256 258 259 259 259 261 261 259 259 260 259 260 259 260 261 259 257 258 259 259 259 258 257 257 258 258 258 258 257 258 259 260 260 261 261 262 263 263 264 265 265 266
257 255 256 258 258 259 257 258 258 260 260 260 259 259 260 260 260 259 258 257 258 258 259 259 259 260 259 259 260 260 259 259 260 260 261 261 261 261 261 262 264 265 264 265
257 255 256 257 258 259 258 257 258 259 259 259 260 260 260 259 259 259 259 258 258 257 259 260 261 262 262 261 260 260 259 259 260 260 260 260 260 260 261 261 262 263 263 264
259 255 254 254 255 256 257 256 256 257 257 258 259 260 261 259 259 259 259 259 257 256 258 260 260 262 262 262 262 262 262 262 261 261 261 260 260 260 260 260 261 262 264 266
257 253 253 254 255 254 254 255 255 256 257 258 260 260 260 260 260 259 260 259 259 258 261 261 262 261 261 262 262 263 264 262 260 260 260 260 259 259 260 261 262 263 265 266
253 252 251 253 254 255 256 256 255 257 257 258 259 259 259 258 259 260 260 258 258 259 261 261 262 262 262 263 264 264 264 263 262 260 259 260 260 260 261 262 263 264 265 266
Height
5711 5712 5714 5716 5716 5717 5717 5717 5718 5720 5719 5719 5720 5722 5723 5724 5724 5725 5726 5727 5727 5728 5729 5730 5731 5731 5732 5733 5734 5735 5736 5738 5740 5743 5746 5750 5753 5756 5759 5762 5764 5766 5768 5770
5701 5704 5707 5706 5706 5707 5707 5708 5710 5711 5710 5710 5711 5713 5714 5715 5716 5718 5718 5719 5720 5721 5722 5723 5724 5725 5726 5726 5727 5728 5729 5731 5733 5736 5739 5742 5745 5748 5751 5753 5756 5758 5760 5762
5691 5696 5696 5696 5697 5697 5698 5700 5701 5701 5701 5701 5702 5704 5706 5707 5708 5709 5710 5711 5712 5713 5715 5716 5717 5718 5718 5719 5720 5721 5722 5724 5726 5728 5731 5733 5736 5739 5742 5745 5747 5749 5751 5753
5681 5685 5685 5685 5687 5688 5689 5692 5691 5691 5691 5692 5693 5693 5698 5699 5700 5701 5702 5703 5705 5706 5707 5709 5709 5710 5711 5712 5712 5714 5715 5716 5718 5720 5723 5726 5728 5731 5734 5736 5738 5740 5742 5744
5672 5674 5674 5676 5679 5678 5680 5681 5681 5681 5681 5682 5684 5684 5688 5691 5692 5693 5694 5695 5696 5698 5699 5700 5701 5702 5703 5704 5705 5706 5707 5709 5711 5712 5715 5717 5719 5722 5724 5726 5728 5731 5732 5733
5661 5662 5663 5666 5668 5668 5670 5670 5671 5671 5671 5672 5676 5675 5677 5682 5684 5685 5686 5686 5687 5689 5690 5691 5692 5693 5694 5695 5696 5698 5699 5701 5702 5704 5706 5708 5710 5712 5714 5716 5718 5720 5722 5723
5649 5650 5652 5654 5656 5658 5659 5660 5660 5660 5660 5663 5666 5665 5669 5673 5674 5675 5676 5677 5678 5680 5681 5682 5684 5685 5686 5687 5688 5689 5691 5692 5693 5695 5697 5699 5701 5702 5704 5706 5708 5710 5711 5713
5635 5638 5641 5642 5645 5647 5648 5650 5651 5651 5651 5654 5655 5655 5661 5663 5664 5665 5666 5668 5669 5670 5671 5673 5674 5675 5677 5678 5679 5680 5681 5683 5684 5686 5688 5689 5691 5692 5693 5695 5697 5699 5701 5702
5622 5626 5629 5631 5633 5635 5636 5638 5641 5641 5640 5642 5643 5647 5651 5653 5654 5655 5657 5658 5659 5661 5662 5663 5664 5665 5667 5668 5669 5671 5672 5673 5675 5676 5678 5679 5680 5682 5683 5684 5686 5687 5689 5690
5610 5613 5617 5619 5621 5623 5626 5628 5629 5629 5629 5630 5633 5636 5640 5643 5644 5645 5647 5648 5649 5650 5652 5653 5654 5655 5657 5658 5660 5661 5663 5664 5665 5666 5667 5669 5670 5671 5672 5673 5675 5676 5677 5678
5597 5600 5603 5607 5609 5612 5615 5616 5617 5618 5619 5621 5622 5628 5631 5632 5634 5635 5637 5638 5639 5640 5642 5643 5644 5645 5647 5648 5650 5651 5653 5654 5655 5656 5657 5658 5659 5660 5661 5662 5663 5664 5666 5666
5585 5587 5590 5594 5598 5600 5602 5605 5607 5608 5609 5610 5611 5618 5620 5622 5623 5625 5626 5627 5629 5630 5631 5632 5634 5635 5637 5638 5640 5641 5643 5644 5645 5646 5646 5647 5648 5649 5650 5651 5652 5652 5654 5654
5573 5575 5578 5582 5587 5589 5590 5592 5595 5596 5598 5599 5601 5608 5610 5611 5612 5614 5615 5617 5618 5619 5621 5622 5624 5625 5627 5628 5630 5631 5632 5633 5634 5635 5636 5636 5637 5638 5639 5640 5640 5641 5642 5642
5561 5563 5567 5569 5572 5575 5577 5580 5582 5584 5585 5587 5591 5596 5599 5600 5602 5603 5605 5606 5607 5609 5610 5612 5613 5615 5616 5618 5619 5621 5622 5623 5624 5625 5625 5626 5627 5628 5628 5629 5629 5630 5630 5630
5549 5551 5554 5557 5560 5562 5565 5568 5570 5572 5574 5577 5582 5584 5589 5590 5591 5592 5593 5595 5597 5598 5600 5601 5603 5604 5605 5607 5608 5610 5611 5612 5613 5614 5615 5616 5617 5617 5618 5618 5619 5619 5620 5619
5538 5540 5543 5545 5548 5550 5552 5556 5559 5561 5564 5566 5570 5574 5578 5578 5579 5581 5582 5584 5585 5587 5589 5590 5592 5593 5595 5596 5597 5599 5600 5601 5602 5603 5604 5605 5606 5607 5608 5608 5608 5609 5609 5609
5528 5530 5532 5534 5537 5538 5541 5547 5549 5551 5553 5556 5558 5563 5565 5567 5567 5569 5571 5572 5573 5575 5577 5579 5580 5582 5584 5585 5587 5588 5589 5590 5592 5593 5594 5594 5595 5596 5597 5598 5598 5598 5599 5599
5519 5520 5521 5523 5526 5527 5535 5537 5539 5540 5543 5545 5547 5550 5553 5555 5556 5557 5559 5561 5562 5564 5565 5567 5569 5571 5572 5574 5575 5577 5578 5579 5580 5582 5583 5584 5585 5586 5586 5587 5587 5588 5588 5588
5509 5511 5512 5513 5514 5516 5523 5526 5528 5530 5531 5535 5536 5538 5540 5542 5544 5547 5548 5549 5551 5552 5554 5556 5558 5559 5561 5563 5564 5565 5567 5568 5569 5570 5572 5572 5573 5574 5575 5576 5577 5577 5577 5578
5500 5501 5503 5503 5504 5507 5514 5516 5517 5519 5521 5525 5526 5527 5529 5531 5533 5537 5537 5538 5539 5541 5543 5544 5546 5548 5550 5551 5553 5554 5555 5556 5558 5559 5560 5561 5562 5563 5564 5565 5566 5566 5566 5566
5491 5492 5493 5494 5495 5498 5504 5506 5507 5510 5513 5514 5515 5516 5518 5520 5523 5525 5526 5527 5528 5530 5532 5533 5535 5537 5539 5540 5541 5543 5544 5545 5546 5547 5548 5549 5550 5551 5552 5554 5554 5555 5555 5555
5482 5483 5485 5486 5486 5492 5495 5496 5498 5500 5502 5503 5504 5506 5508 5510 5511 5513 5515 5516 5518 5519 5521 5523 5524 5526 5527 5529 5530 5531 5532 5533 5534 5536 5537 5537 5538 5539 5540 5541 5542 5542 5543 5543
5473 5475 5476 5477 5480 5482 5484 5486 5488 5490 5491 5493 5495 5496 5498 5500 5501 5502 5504 5506 5507 5509 5511 5512 5513 5515 5516 5517 5518 5520 5520 5521 5523 5524 5524 5525 5526 5527 5528 5529 5530 5530 5530 5530
5465 5466 5467 5468 5471 5473 5475 5477 5478 5480 5481 5483 5485 5487 5488 5490 5491 5492 5494 5495 5497 5498 5500 5501 5503 5504 5505 5506 5507 5508 5509 5510 5511 5512 5513 5513 5514 5515 5516 5517 5517 5518 5518 5518
5457 5458 5459 5460 5463 5465 5467 5468 5470 5471 5472 5474 5476 5477 5479 5480 5482 5483 5484 5486 5487 5489 5490 5491 5492 5493 5494 5495 5496 5497 5498 5498 5499 5500 5501 5502 5502 5503 5504 5505 5505 5505 5506 5505
5450 5452 5453 5454 5456 5457 5458 5460 5461 5462 5464 5465 5466 5468 5469 5471 5472 5474 5475 5476 5477 5479 5480 5481 5482 5483 5484 5484 5485 5486 5486 5487 5488 5489 5489 5490 5491 5491 5492 5492 5493 5493 5493 5493